Погода в Пейсли

Великобритания     55°51′02″N   4°25′49″W
темп.,
°C
ветер,
м/с
пор.,
м/с
влажн.,
%
обл.,
%
осадки,
мм/ч
давл.,
гПа
погр.,
м
11 мая, вт
вт1101:00+8ю51091100 0.3 996675
04:00+8ююз71196100 2.9 9981040
07:00+7ююз7139164 3.4 1001774
10:00+10ююз7107095 0.0 10031163
13:00+12юз675976 0.0 10051763
16:00+12юз246465 0.4 10051189
19:00+12ююз0270100 0.9 1005473
22:00+8юв2593100 0.9 1006122
12 мая, ср
ср1201:00+7всв4893100 3.9 1006928
04:00+7всв489789 0.2 1005526
07:00+7св3697100 0.9 1005288
10:00+9всв349067 0.6 1006505
13:00+10всв238190 2.3 1006728
16:00+11в237986 1.9 1006757
19:00+9юз239186 4.3 1008211
22:00+6св019234 0.2 100910
13 мая, чт
чт1301:00+5всв22958 0.2 101030
04:00+4св249829 0.0 101091
07:00+7всв4996100 0.0 1011466
10:00+9всв5889100 0.0 1011672
13:00+10всв6880100 0.1 1011838
16:00+11всв6776100 0.1 1011976
19:00+9всв5880100 0.2 1012676
22:00+7всв6108992 0.0 1013536
14 мая, пт
пт1401:00+6всв598899 0.0 1014541
04:00+6всв488199 0.0 1013562
07:00+6всв377970 0.0 1013535
10:00+9в336666 0.0 10131004
13:00+11в226097 0.0 10121416
16:00+11юв0263100 0.0 10101034
19:00+10юв127998 0.1 1009141
22:00+8в2279100 0.1 100947
15 мая, сб
сб1501:00+7всв2381100 0.1 100787
04:00+7всв2582100 0.0 1005148
07:00+7св3779100 0.0 1004299
10:00+9всв577269 0.0 1003569
13:00+11вюв5768100 0.1 10011368
16:00+8в5883100 0.2 1000760
19:00+9всв588298 0.3 999724
22:00+7всв5109296 0.3 999614